User: anonymous   Login
Location: Unspecified
(0.0000°N, 0.0000°E)
Time: 06:05:45
(UTC+00:00)
Language:

COSMOS 2471 (GLONASS) - Orbit

View from above orbital plane
View from above orbital plane
View from above satellite
View from above satellite

Ground track
Ground track

The orbit data is extracted from the following two-line orbital elements,

1 37372U 11009A   18232.41713174 -.00000017  00000-0  00000+0 0  9995
2 37372  65.6083  50.1467 0007216 222.7902 310.7160  2.13107588 58191
Epoch (UTC): 20 August 2018 10:00:40
Eccentricity: 0.0007216
inclination: 65.6083°
perigee height: 19111 km
apogee height: 19147 km
right ascension of ascending node: 50.1467°
argument of perigee: 222.7902°
revolutions per day: 2.13107588
mean anomaly at epoch: 310.7160°
orbit number at epoch: 5819

The dashed part of the orbit path shows where the satellite is in the earth's shadow,  

DLR